Location: Ladrillo (historical)
(32.8195°N, 117.2231°W)
Time: 22:30:09
(UTC+00:00)

Altair - Pass Details

Date: 05 March 2021
Orbit: 1501 x 1683 km, 47.2° (Epoch: 15 April)

Event Time Altitude Azimuth Distance (km) Brightness Sun altitude
Rises 06:28:26 0° 303° (WNW) 4,690 10.6 -55.7°
Reaches altitude 10° 06:31:43 10° 310° (NW) 3,728 9.9 -56.1°
Enters shadow 06:34:41 21° 321° (NW) 2,942 9.2 -56.5°
